Location: Pedimozza
(42.0500°N, 9.3500°E)
Time: 20:28:43
(UTC+00:00)

Cosmos 2082 Rocket - Pass Details

Date: 19 August 2019
Orbit: 831 x 855 km, 71.0° (Epoch: 13 October)

Event Time Altitude Azimuth Distance (km) Brightness Sun altitude
Exits shadow 22:44:05 26° 291° (WNW) 1,585 3.8 -34.5°
Maximum altitude 22:44:54 27° 306° (NW) 1,552 3.9 -34.5°
Drops below altitude 10° 22:49:41 10° 4° (N) 2,469 5.4 -34.7°
Sets 22:52:32 0° 16° (NNE) 3,412 6.2 -34.8°
